Location: Pine Ridge Estates
(42.5164°N, 73.8156°W)
Time: 11:23:22
(UTC+00:00)

ISS - Pass Details

Date: 20 October 2024
Orbit: 407 x 418 km, 51.6° (Epoch: 13 November)

Event Time Altitude Azimuth Distance (km) Brightness Sun altitude
Exits shadow 09:02:31 29° 104° (ESE) 771 -1.9 -25.0°
Drops below altitude 10° 09:04:41 10° 71° (ENE) 1,468 0.0 -24.6°
Enters shadow 10:01:00 -69° 239° (WSW) 12,330 3.6 -14.3°
Maximum altitude 10:38:22 34° 336° (NNW) 690 -2.9 -7.4°
Sets 10:43:37 0° 53° (NE) 2,333 0.8 -6.5°
